#timestamp,LO_Frequency,Hit,StdDev 
1538906415.7,286046984.6,N
1538906435.5,286046983.8,N
1538906455.3,286046984.6,N
1538906475.2,286046984.2,N
1538906495.0,286046986.3,N
1538906495.9,286046986.3,N
1538906515.8,286046984.5,N
1538906535.6,286046984.0,N
1538906555.4,286046983.8,N
1538906575.3,286046984.6,N
1538906595.1,286046984.5,N
1538906615.9,286046984.1,Y
1538906635.7,286046997.4,P
1538906655.5,286046996.7,N
1538906675.4,286046996.9,N
1538906695.2,286046998.4,N
1538906715.1,286046998.6,N
1538906716.0,286046998.6,N
1538906735.8,286046998.8,N
1538906755.6,286047000.6,N
1538906775.5,286047000.4,N
1538906795.3,286047000.8,N
1538906815.1,286047000.3,N
1538906835.9,286047000.0,N
1538906855.7,286046998.5,N
1538906875.6,286047000.6,N
1538906895.4,286047000.6,N
1538906915.2,286047000.1,N
1538906935.1,286046999.8,N
1538906936.0,286046999.8,N
1538906955.8,286047000.1,N
1538906975.7,286047001.9,N
1538906995.5,286047002.6,N
1538907015.3,286047001.7,N
1538907035.2,286047001.5,N
1538907055.9,286047002.2,N
1538907075.7,286047002.0,N
1538907095.6,286047003.6,N
1538907115.4,286047001.4,N
1538907135.2,286047001.3,N
1538907155.1,286047003.5,N
1538907156.0,286047003.5,N
1538907175.8,286047003.8,N
1538907195.7,286047003.2,N
1538907215.5,286047005.1,N
1538907235.3,286047004.7,N
1538907255.2,286047005.7,Y
1538907275.0,286047003.9,P
1538907275.9,286047003.9,N
1538907295.8,286047003.5,N
1538907315.6,286047005.9,Y
1538907335.4,286046999.8,P
1538907355.3,286047002.3,N
1538907375.1,286046999.7,N
1538907395.8,286047000.1,N
1538907415.2,286047000.2,N
1538907435.0,286047000.0,N
1538907435.9,286047000.0,N
1538907455.8,286047002.7,N
1538907475.6,286046999.9,N
1538907495.4,286047002.6,N
1538907515.2,286047002.0,N
1538907535.1,286047002.3,N
1538907536.0,286047002.3,N
1538907555.8,286047001.8,N
1538907575.7,286047001.5,N
1538907595.5,286047001.7,N
1538907615.3,286047002.1,N
1538907635.2,286047001.7,N
1538907655.9,286047002.6,N
1538907675.7,286047001.5,N
1538907695.6,286047001.4,N
1538907715.4,286047004.0,Y
1538907735.3,286047002.7,P
1538907755.1,286047002.1,P
1538907756.0,286047002.1,P
1538907775.8,286047002.3,Y
1538907795.7,286047000.9,P
1538907815.5,286047001.1,N
1538907835.3,286047001.1,N
1538907855.2,286047000.4,N
1538907875.0,286046999.9,N
1538907875.9,286046999.9,N
1538907895.8,286047002.8,Y
1538907915.6,286047000.5,P
1538907935.4,286047000.1,N
1538907955.3,286047000.6,N
1538907975.1,286047002.8,Y
1538907995.9,286047000.6,P
1538908015.7,286047000.3,P
1538908035.5,286046999.7,N
1538908055.4,286046999.9,N
1538908075.2,286047002.8,Y
1538908095.1,286047001.9,P
1538908096.0,286047001.9,N
1538908115.8,286047002.5,P
1538908135.7,286047002.7,Y
1538908155.5,286046998.5,P
1538908175.3,286046998.2,N
1538908195.2,286046998.9,N
1538908215.0,286046999.3,N
1538908215.9,286046999.3,N
1538908235.7,286046999.0,N
1538908255.6,286046998.8,N
1538908275.4,286046999.1,N
1538908295.3,286046999.2,N
1538908315.1,286046998.3,N
1538908316.0,286046998.3,N
1538908335.8,286046998.5,N
1538908355.7,286046998.3,N
1538908375.5,286046998.6,N
1538908395.3,286046998.3,N
1538908415.2,286046998.5,N
1538908435.0,286046998.4,N
1538908435.9,286046998.4,N
1538908455.8,286046998.8,N
1538908475.6,286046999.1,N
1538908495.4,286046998.9,N
1538908515.3,286046996.7,Y
1538908535.1,286046998.1,P
1538908555.9,286047000.6,N
1538908575.7,286047011.9,P
1538908595.5,286047002.7,N
1538908615.4,286047000.1,N
1538908635.2,286046999.8,N
1538908655.0,286047000.3,N
1538908655.9,286047000.3,N
1538908675.8,286047000.8,N
1538908695.6,286047000.2,N
1538908715.5,286046999.8,N
1538908735.1,286047002.3,N
1538908755.9,286046999.9,N
1538908775.7,286047000.0,N
1538908795.5,286047002.3,N
1538908815.4,286047000.1,N
1538908835.2,286047002.4,N
1538908855.1,286047000.5,N
1538908856.0,286047000.5,N
1538908875.8,286047002.7,N
1538908895.6,286047000.2,N
1538908915.5,286047002.8,N
1538908935.3,286047000.3,N
1538908955.1,286047000.5,N
1538908975.9,286047000.0,N
1538908995.7,286047000.2,N
1538909015.6,286047000.0,N
1538909035.4,286046999.9,N
1538909055.2,286047018.8,Y
1538909075.1,286047016.0,P
1538909076.0,286047016.0,N
1538909095.8,286047014.8,N
1538909115.6,286047014.0,N
1538909135.5,286047009.7,N
1538909155.3,286047007.7,N
1538909175.2,286047007.8,N
1538909195.9,286047008.9,N
1538909215.7,286047009.0,N
1538909235.6,286047006.1,N
1538909255.4,286047004.5,N
1538909275.2,286047005.0,N
1538909295.1,286047005.4,N
1538909296.0,286047005.4,N
1538909315.8,286047005.6,N
1538909335.7,286047003.4,N
1538909355.5,286047011.1,N
1538909375.3,286047017.9,Y
1538909395.2,286047008.0,P
1538909415.0,286047004.9,P
1538909415.9,286047004.9,P
1538909435.8,286047001.8,N
1538909455.6,286047000.1,N
1538909475.4,286046998.1,N
1538909495.3,286047011.9,Y
1538909515.1,286046996.1,P
1538909535.8,286046996.1,N
1538909555.7,286046996.1,N
1538909575.5,286046993.4,N
1538909595.4,286046994.5,N
1538909615.2,286046991.7,N
1538909635.0,286046994.4,N
1538909635.9,286046994.4,N
1538909655.8,286046991.8,N
1538909675.6,286046994.6,N
1538909695.4,286046991.8,N
1538909715.3,286046991.9,N
1538909735.1,286046992.8,N
1538909755.9,286046990.6,Y
1538909775.7,286046997.7,P
1538909795.5,286046995.0,P
1538909815.4,286046994.9,P
1538909835.2,286046995.7,Y
1538909855.0,286047000.7,P
1538909855.9,286047000.7,N
1538909875.8,286047000.3,N
1538909895.6,286047002.8,N
1538909915.5,286047002.5,N
1538909935.3,286047000.7,N
1538909955.1,286047000.3,N
1538909975.9,286047000.1,N
1538909995.7,286047000.4,N
